Location: Geroldsau
(48.7259°N, 8.2466°E)
Time: 10:23:35
(UTC+00:00)

Cosmos 1943 - Pass Details

Date: 20 June 2021
Orbit: 832 x 852 km, 71.0° (Epoch: 01 August)

Event Time Altitude Azimuth Distance (km) Brightness Sun altitude
Exits shadow 01:33:46 14° 235° (SW) 2,165 4.8 -12.6°
Maximum altitude 01:38:21 47° 306° (NW) 1,109 3.9 -12.2°
Drops below altitude 10° 01:43:49 10° 20° (NNE) 2,470 7.1 -11.8°
Sets 01:46:23 0° 26° (NNE) 3,411 8.5 -11.5°
